Content
SEND FEEDBACK

Daily
Averages
Monthly
Summary
United States of America

PETERSBURG, ILLINOIS


Home > North America > United States > Illinois
Elevation: 158 meters     Latitude: 40 01N     Longitude: 089 51W

WEATHER
 
SELECT A DAY
Number of Records: 208,195;   Date Range: 1/1/95 - 12/16/14
 
SHARE

PRINT THIS DATA

[ ← Previous Day ]
WEATHER ALMANAC - 31 JANUARY, 2013
[ Next Day → ]
[ °F ]   °C
Weather ElementAverageHighLow
Temperature-7.4 °C-3.9 °C (3:52 am)-14 °C (11:24 pm)
Dewpoint-12.9 °C-7.2 °C (6:52 am)-20 °C (9:52 pm)
Humidity65.6 %81 % (6:52 am)57 % (2:52 pm)
Barometer1018.3 hPa1028.4 hPa (11:52 pm)1011.9 hPa (3:52 am)
Wind Speed28.8 km/h38.9 km/h (3:52 pm)
Wind Gust57.5 km/h (3:52 pm)
Weather ElementAverage
Visibility15.9 km
Wind DirectionWNW (289.2 °)

Weather ElementTotal
Precipitation---
Heating Degree Days27.3 (Base 18.3)
Averaged from 25 records on 31 January, 2013
WEATHER CONDITIONS BREAKOUT
WIND DIRECTION BREAKOUT
WEATHER BY HOUR - 31 JANUARY, 2013
[ °F ]   °C
Local TimeTemperatureDewpointHumidityBarometerVisibilityWind DirectionWind SpeedGust SpeedPrecipitationEventsConditions
1:52 AM-6.1 °C-10 °C74 %1012.2 hPa16.1 kmWest (270°)18.5 km/hPartly Cloudy
2:52 AM-4.4 °C-8.9 °C71 %1012.2 hPa16.1 kmWest (260°)24.1 km/hOvercast
3:52 AM-3.9 °C-9.4 °C66 %1011.9 hPa16.1 kmWest (260°)27.8 km/hOvercast
4:52 AM-3.9 °C-8.9 °C69 %1011.9 hPa16.1 kmWest (260°)31.5 km/hOvercast
5:52 AM-3.9 °C-8.3 °C72 %1012.5 hPa16.1 kmWest (270°)27.8 km/h42.6 km/h0 mmOvercast
6:52 AM-4.4 °C-7.2 °C81 %1013.2 hPa16.1 kmWest (270°)25.9 km/h40.7 km/h0 mmOvercast
7:52 AM-4.4 °C-7.8 °C77 %1013.9 hPa16.1 kmWNW (290°)20.4 km/h0 mmOvercast
8:52 AM-4.4 °C-9.4 °C69 %1014.6 hPa16.1 kmWNW (290°)24.1 km/h37 km/hMostly Cloudy
9:52 AM-3.9 °C-10.6 °C60 %1015.6 hPa16.1 kmWNW (290°)29.6 km/h38.9 km/hPartly Cloudy
10:50 AM-4 °C-10 °C64 %1015.6 hPa16.1 kmWest (270°)31.5 km/h40.7 km/hOvercast
10:52 AM-4.4 °C-10 °C65 %1016.3 hPa16.1 kmWest (280°)33.3 km/h40.7 km/hOvercast
11:52 AM-3.9 °C-10 °C63 %1016.6 hPa16.1 kmWNW (290°)24.1 km/h46.3 km/hOvercast
12:06 PM-4 °C-11 °C59 %1015.6 hPa16.1 kmWNW (300°)31.5 km/h44.4 km/hMostly Cloudy
12:52 PM-4.4 °C-10.6 °C62 %1016.6 hPa16.1 kmWNW (300°)31.5 km/h46.3 km/hMostly Cloudy
2:52 PM-6.7 °C-13.9 °C57 %1017.9 hPa16.1 kmNW (310°)31.5 km/h46.3 km/hMostly Cloudy
3:52 PM-8.9 °C-16.1 °C57 %1020 hPa16.1 kmWNW (300°)38.9 km/h57.5 km/hOvercast
4:52 PM-9.4 °C-14.4 °C68 %1021 hPa12.9 kmNW (310°)33.3 km/h46.3 km/h0 mmSnowLight Snow
5:52 PM-10.6 °C-16.7 °C62 %1022 hPa16.1 kmNW (310°)33.3 km/h48.1 km/h0 mmOvercast
6:52 PM-10.6 °C-16.7 °C62 %1023.4 hPa16.1 kmNW (310°)16.7 km/h48.1 km/hOvercast
7:52 PM-11.7 °C-17.8 °C61 %1024.4 hPa16.1 kmNW (320°)29.6 km/h46.3 km/h0 mmMostly Cloudy
8:52 PM-12.8 °C-18.9 °C61 %1025.4 hPa16.1 kmWNW (300°)33.3 km/h48.1 km/h0 mmScattered Clouds
9:52 PM-13.3 °C-20 °C58 %1026.1 hPa16.1 kmWNW (290°)33.3 km/hMostly Cloudy
10:52 PM-13.9 °C-20 °C61 %1027.4 hPa16.1 kmWNW (290°)31.5 km/h46.3 km/hScattered Clouds
11:24 PM-14 °C-18 °C72 %1026.8 hPa14.5 kmWNW (300°)31.5 km/h42.6 km/hMostly Cloudy
11:52 PM-13.9 °C-18.3 °C70 %1028.4 hPa16.1 kmWNW (290°)25.9 km/h38.9 km/hOvercast
Hourly data recorded from KSPI, located 0 kilometers away from Petersburg, Illinois







STORIES FROM OUR PARTNERS